H1 CPF 2 NER 2024 2 7 9 038 01 glonass141 H2 1908801 9141 44850 2024 2 7 0 0 0 2024 2 10 23 45 0 900 1 1 0 0 0 1 H9 10 0 60347 0.00000 0 18337554.286 -2558587.904 17586766.277 10 0 60347 900.00000 0 16425731.170 -1306085.618 19510738.293 10 0 60347 1800.00000 0 14448985.209 221677.967 21057095.944 10 0 60347 2700.00000 0 12472111.457 2005943.624 22195970.666 10 0 60347 3600.00000 0 10556611.597 4015791.453 22905353.888 10 0 60347 4500.00000 0 8758245.838 6209193.560 23171514.630 10 0 60347 5400.00000 0 7124841.059 8534536.716 22989261.590 10 0 60347 6300.00000 0 5694444.700 10932553.533 22362045.174 10 0 60347 7200.00000 0 4493899.846 13338584.028 21301897.450 10 0 60347 8100.00000 0 3537899.658 15685075.823 19829210.691 10 0 60347 9000.00000 0 2828559.958 17904221.274 17972357.690 10 0 60347 9900.00000 0 2355527.590 19930623.725 15767159.818 10 0 60347 10800.00000 0 2096620.246 21703883.321 13256211.427 10 0 60347 11700.00000 0 2018971.505 23170995.514 10488071.900 10 0 60347 12600.00000 0 2080633.697 24288462.323 7516339.352 10 0 60347 13500.00000 0 2232571.886 25024027.728 4398622.537 10 0 60347 14400.00000 0 2420965.440 25357963.566 1195429.857 10 0 60347 15300.00000 0 2589720.178 25283850.688 -2031003.465 10 0 60347 16200.00000 0 2683084.612 24808821.027 -5217927.315 10 0 60347 17100.00000 0 2648258.771 23953248.819 -8303303.712 10 0 60347 18000.00000 0 2437883.818 22749902.585 -11227024.176 10 0 60347 18900.00000 0 2012305.280 21242592.468 -13932092.590 10 0 60347 19800.00000 0 1341512.006 19484369.196 -16365749.229 10 0 60347 20700.00000 0 406666.558 17535350.246 -18480512.636 10 0 60347 21600.00000 0 -798839.895 15460264.838 -20235117.852 10 0 60347 22500.00000 0 -2268854.844 13325821.485 -21595331.619 10 0 60347 23400.00000 0 -3984478.137 11198009.390 -22534627.854 10 0 60347 24300.00000 0 -5914623.012 9139447.729 -23034709.732 10 0 60347 25200.00000 0 -8017101.925 7206894.592 -23085867.959 10 0 60347 26100.00000 0 -10240192.197 5449020.391 -22687168.276 10 0 60347 27000.00000 0 -12524616.082 3904539.002 -21846464.791 10 0 60347 27900.00000 0 -14805852.199 2600774.416 -20580239.270 10 0 60347 28800.00000 0 -17016681.245 1552722.011 -18913270.105 10 0 60347 29700.00000 0 -19089859.024 762642.313 -16878138.024 10 0 60347 30600.00000 0 -20960804.530 220202.379 -14514578.924 10 0 60347 31500.00000 0 -22570190.263 -96843.287 -11868697.256 10 0 60347 32400.00000 0 -23866326.291 -221463.361 -8992056.132 10 0 60347 33300.00000 0 -24807238.470 -195704.312 -5940662.759 10 0 60347 34200.00000 0 -25362354.307 -68660.642 -2773869.853 10 0 60347 35100.00000 0 -25513726.781 105851.600 446784.770 10 0 60347 36000.00000 0 -25256746.042 271818.196 3658777.192 10 0 60347 36900.00000 0 -24600310.630 373639.302 6799811.154 10 0 60347 37800.00000 0 -23566452.547 358720.173 9809022.806 10 0 60347 38700.00000 0 -22189433.394 179930.480 12628153.235 10 0 60347 39600.00000 0 -20514350.630 -202171.302 15202666.459 10 0 60347 40500.00000 0 -18595313.140 -817441.729 17482792.152 10 0 60347 41400.00000 0 -16493262.680 -1684663.664 19424474.051 10 0 60347 42300.00000 0 -14273532.006 -2810527.059 20990207.122 10 0 60347 43200.00000 0 -12003240.697 -4189121.735 22149748.798 10 0 60347 44100.00000 0 -9748635.899 -5801963.568 22880692.043 10 0 60347 45000.00000 0 -7572487.021 -7618553.576 23168890.445 10 0 60347 45900.00000 0 -5531640.867 -9597447.715 23008728.100 10 0 60347 46800.00000 0 -3674836.907 -11687794.418 22403229.599 10 0 60347 47700.00000 0 -2040871.793 -13831277.765 21364007.975 10 0 60347 48600.00000 0 -657187.980 -15964387.586 19911051.135 10 0 60347 49500.00000 0 461055.855 -18020924.192 18072349.860 10 0 60347 50400.00000 0 1311394.416 -19934635.392 15883373.169 10 0 60347 51300.00000 0 1903928.463 -21641877.521 13386399.558 10 0 60347 52200.00000 0 2260665.646 -23084190.529 10629715.263 10 0 60347 53100.00000 0 2414356.615 -24210679.991 7666693.439 10 0 60347 54000.00000 0 2406874.724 -24980106.141 4554770.669 10 0 60347 54900.00000 0 2287207.004 -25362591.604 1354339.600 10 0 60347 55800.00000 0 2109140.848 -25340874.802 -1872421.359 10 0 60347 56700.00000 0 1928744.234 -24911054.708 -5062758.590 10 0 60347 57600.00000 0 1801746.581 -24082793.839 -8154570.143 10 0 60347 58500.00000 0 1780932.153 -22878969.154 -11087624.187 10 0 60347 59400.00000 0 1913657.853 -21334784.042 -13804744.180 10 0 60347 60300.00000 0 2239602.328 -19496377.617 -16252936.366 10 0 60347 61200.00000 0 2788843.737 -17418989.107 -18384436.247 10 0 60347 62100.00000 0 3580349.588 -15164754.281 -20157652.384 10 0 60347 63000.00000 0 4620944.507 -12800226.598 -21537988.077 10 0 60347 63900.00000 0 5904801.330 -10393727.574 -22498524.060 10 0 60347 64800.00000 0 7413478.474 -8012638.053 -23020548.400 10 0 60347 65700.00000 0 9116503.144 -5720744.420 -23093923.017 10 0 60347 66600.00000 0 10972476.553 -3575751.277 -22717279.708 10 0 60347 67500.00000 0 12930655.035 -1627064.760 -21898042.062 10 0 60347 68400.00000 0 14932940.665 86061.093 -20652273.265 10 0 60347 69300.00000 0 16916197.554 1535938.147 -19004353.293 10 0 60347 70200.00000 0 18814796.211 2707360.252 -16986492.423 10 0 60347 71100.00000 0 20563278.758 3597984.996 -14638091.291 10 0 60347 72000.00000 0 22099032.735 4218167.255 -12004960.761 10 0 60347 72900.00000 0 23364861.027 4590253.962 -9138417.694 10 0 60347 73800.00000 0 24311340.052 4747372.297 -6094275.069 10 0 60347 74700.00000 0 24898867.440 4731764.821 -2931747.066 10 0 60347 75600.00000 0 25099313.869 4592744.046 287708.789 10 0 60347 76500.00000 0 24897210.570 4384354.687 3501589.228 10 0 60347 77400.00000 0 24290423.813 4162843.791 6647558.775 10 0 60347 78300.00000 0 23290289.309 3984046.561 9664655.458 10 0 60347 79200.00000 0 21921202.165 3900798.676 12494465.428 10 0 60347 80100.00000 0 20219680.683 3960484.295 15082244.150 10 0 60347 81000.00000 0 18232943.965 4202822.704 17377963.302 10 0 60347 81900.00000 0 16017063.157 4657986.180 19337264.292 10 0 60347 82800.00000 0 13634763.368 5345127.536 20922301.288 10 0 60347 83700.00000 0 11152967.203 6271378.613 22102459.007 10 0 60347 84600.00000 0 8640180.959 7431361.444 22854932.860 10 0 60347 85500.00000 0 6163830.593 8807232.714 23165161.535 10 0 60348 0.00000 0 3787656.431 10369260.206 23027104.693 10 0 60348 900.00000 0 1569271.527 12076909.197 22443360.796 10 0 60348 1800.00000 0 -442013.731 13880393.004 21425123.122 10 0 60348 2700.00000 0 -2207016.358 15722627.744 19991974.083 10 0 60348 3600.00000 0 -3698077.187 17541509.857 18171520.908 10 0 60348 4500.00000 0 -4899973.009 19272424.215 15998878.370 10 0 60348 5400.00000 0 -5810306.644 20850879.734 13516006.897 10 0 60348 6300.00000 0 -6439358.682 22215163.682 10770917.106 10 0 60348 7200.00000 0 -6809406.740 23308904.317 7816754.501 10 0 60348 8100.00000 0 -6953540.324 24083434.544 4710780.638 10 0 60348 9000.00000 0 -6914020.555 24499856.808 1513269.406 10 0 60348 9900.00000 0 -6740253.485 24530721.256 -1713660.677 10 0 60348 10800.00000 0 -6486462.414 24161244.954 -4907255.596 10 0 60348 11700.00000 0 -6209157.876 23390018.869 -8005352.497 10 0 60348 12600.00000 0 -5964513.050 22229170.848 -10947599.136 10 0 60348 13500.00000 0 -5805756.869 20703975.844 -13676641.286 10 0 60348 14400.00000 0 -5780696.733 18851928.142 -16139253.646 10 0 60348 15300.00000 0 -5929477.515 16721313.458 -18287390.863 10 0 60348 16200.00000 0 -6282673.576 14369340.176 -20079136.887 10 0 60348 17100.00000 0 -6859796.385 11859907.888 -21479533.125 10 0 60348 18000.00000 0 -7668282.483 9261106.959 -22461268.340 10 0 60348 18900.00000 0 -8703005.989 6642554.245 -23005216.358 10 0 60348 19800.00000 0 -9946337.267 4072676.904 -23100810.819 10 0 60348 20700.00000 0 -11368745.997 1616058.392 -22746249.665 10 0 60348 21600.00000 0 -12929923.575 -669042.264 -21948525.626 10 0 60348 22500.00000 0 -14580377.602 -2732894.365 -20723282.492 10 0 60348 23400.00000 0 -16263431.085 -4536131.051 -19094500.538 10 0 60348 24300.00000 0 -17917541.796 -6051140.708 -17094017.864 10 0 60348 25200.00000 0 -19478843.705 -7262957.640 -14760897.717 10 0 60348 26100.00000 0 -20883803.018 -8169616.598 -12140654.927 10 0 60348 27000.00000 0 -22071876.671 -8781958.658 -9284357.405 10 0 60348 27900.00000 0 -22988061.183 -9122899.145 -6247621.034 10 0 60348 28800.00000 0 -23585224.652 -9226190.968 -3089518.478 10 0 60348 29700.00000 0 -23826124.033 -9134737.952 128576.079 10 0 60348 30600.00000 0 -23685023.488 -8898531.495 3344183.101 10 0 60348 31500.00000 0 -23148846.547 -8572299.399 6494930.979 10 0 60348 32400.00000 0 -22217814.690 -8212967.418 9519762.651 10 0 60348 33300.00000 0 -20905546.573 -7877041.400 12360112.270 10 0 60348 34200.00000 0 -19238614.719 -7618020.685 14961029.495 10 0 60348 35100.00000 0 -17255578.939 -7483951.505 17272230.505 10 0 60348 36000.00000 0 -15005537.272 -7515222.828 19249056.526 10 0 60348 36900.00000 0 -12546254.846 -7742696.511 20853322.667 10 0 60348 37800.00000 0 -9941948.028 -8186249.489 22054042.213 10 0 60348 38700.00000 0 -7260814.939 -8853788.497 22828013.824 10 0 60348 39600.00000 0 -4572413.430 -9740778.305 23160261.628 10 0 60348 40500.00000 0 -1944993.468 -10830303.320 23044320.686 10 0 60348 41400.00000 0 557107.483 -12093660.702 22482362.911 10 0 60348 42300.00000 0 2875900.088 -13491461.349 21485161.034 10 0 60348 43200.00000 0 4961910.635 -14975194.374 20071890.882 10 0 60348 44100.00000 0 6775992.013 -16489191.608 18269774.784 10 0 60348 45000.00000 0 8290703.998 -17972911.972 16113571.673 10 0 60348 45900.00000 0 9491206.111 -19363452.019 13644922.066 10 0 60348 46800.00000 0 10375625.998 -20598179.040 10911558.869 10 0 60348 47700.00000 0 10954887.752 -21617377.356 7966397.605 10 0 60348 48600.00000 0 11252006.935 -22366797.093 4866522.244 10 0 60348 49500.00000 0 11300881.350 -22799998.042 1672085.205 10 0 60348 50400.00000 0 11144627.907 -22880389.001 -1554857.723 10 0 60348 51300.00000 0 10833535.402 -22582875.196 -4751555.017 10 0 60348 52200.00000 0 10422719.659 -21895042.448 -7855785.792 10 0 60348 53100.00000 0 9969580.589 -20817825.972 -10807080.221 10 0 60348 54000.00000 0 9531169.578 -19365633.475 -13547909.102 10 0 60348 54900.00000 0 9161579.864 -17565915.349 -16024818.158 10 0 60348 55800.00000 0 8909471.862 -15458198.413 -18189483.526 10 0 60348 56700.00000 0 8815839.842 -13092622.570 -19999666.634 10 0 60348 57600.00000 0 8912116.079 -10528041.118 -21420048.740 10 0 60348 58500.00000 0 9218694.206 -7829764.054 -22422928.013 10 0 60348 59400.00000 0 9743935.434 -5067038.965 -22988765.005 10 0 60348 60300.00000 0 10483700.578 -2310375.158 -23106565.624 10 0 60348 61200.00000 0 11421428.245 371176.728 -22774094.117 10 0 60348 62100.00000 0 12528756.101 2912675.764 -21997912.141 10 0 60348 63000.00000 0 13766658.943 5255761.662 -20793243.549 10 0 60348 63900.00000 0 15087055.172 7350842.735 -19183668.058 10 0 60348 64800.00000 0 16434813.405 9158910.215 -17200650.424 10 0 60348 65700.00000 0 17750073.939 10652904.328 -14882915.028 10 0 60348 66600.00000 0 18970786.466 11818576.614 -12275678.863 10 0 60348 67500.00000 0 20035356.458 12654814.483 -9429758.742 10 0 60348 68400.00000 0 20885288.150 13173416.773 -6400570.985 10 0 60348 69300.00000 0 21467712.425 13398332.304 -3247043.969 10 0 60348 70200.00000 0 21737693.114 13364396.032 -30465.542 10 0 60348 71100.00000 0 21660214.778 13115618.412 3186711.625 10 0 60348 72000.00000 0 21211768.841 12703102.143 6342082.966 10 0 60348 72900.00000 0 20381472.091 12182675.730 9374499.456 10 0 60348 73800.00000 0 19171671.333 11612344.722 12225246.227 10 0 60348 74700.00000 0 17598009.664 11049668.568 14839169.925 10 0 60348 75600.00000 0 15688952.202 10549173.524 17165733.783 10 0 60348 76500.00000 0 13484791.453 10159910.000 19159981.126 10 0 60348 77400.00000 0 11036173.779 9923256.198 20783390.014 10 0 60348 78300.00000 0 8402207.879 9871059.269 22004603.996 10 0 60348 79200.00000 0 5648232.897 10024190.973 22800026.364 10 0 60348 80100.00000 0 2843337.467 10391577.627 23154267.697 10 0 60348 81000.00000 0 57730.764 10969744.510 23060439.109 10 0 60348 81900.00000 0 -2639927.514 11742893.918 22520286.118 10 0 60348 82800.00000 0 -5185129.669 12683514.188 21544160.611 10 0 60348 83700.00000 0 -7519949.206 13753495.326 20150831.058 10 0 60348 84600.00000 0 -9595197.688 14905706.094 18367133.646 10 0 60348 85500.00000 0 -11372221.040 16085968.273 16227469.788 10 0 60349 0.00000 0 -12824261.346 17235347.055 13773158.271 10 0 60349 900.00000 0 -13937328.528 18292663.753 11051651.488 10 0 60349 1800.00000 0 -14710543.562 19197124.975 8115632.599 10 0 60349 2700.00000 0 -15155941.040 19890960.466 5022005.234 10 0 60349 3600.00000 0 -15297736.752 20321957.045 1830797.458 10 0 60349 4500.00000 0 -15171091.239 20445781.850 -1396000.620 10 0 60349 5400.00000 0 -14820420.713 20227995.490 -4595642.971 10 0 60349 6300.00000 0 -14297326.349 19645668.366 -7705853.687 10 0 60349 7200.00000 0 -13658229.481 18688529.793 -10666048.290 10 0 60349 8100.00000 0 -12961813.205 17359599.126 -13418525.429 10 0 60349 9000.00000 0 -12266379.470 15675269.995 -15909604.467 10 0 60349 9900.00000 0 -11627234.697 13664842.082 -18090685.404 10 0 60349 10800.00000 0 -11094215.902 11369518.474 -19919209.216 10 0 60349 11700.00000 0 -10709463.414 8840909.470 -21359498.774 10 0 60349 12600.00000 0 -10505535.689 6139104.905 -22383463.072 10 0 60349 13500.00000 0 -10503947.048 3330395.421 -22971150.469 10 0 60349 14400.00000 0 -10714190.903 484738.027 -23111139.873 10 0 60349 15300.00000 0 -11133290.188 -2326927.868 -22800762.197 10 0 60349 16200.00000 0 -11745894.044 -5035401.623 -22046148.002 10 0 60349 17100.00000 0 -12524916.390 -7575865.977 -20862100.766 10 0 60349 18000.00000 0 -13432688.872 -9890344.793 -19271798.810 10 0 60349 18900.00000 0 -14422578.708 -11929871.777 -17306332.316 10 0 60349 19800.00000 0 -15441002.249 -13656280.436 -15004085.202 10 0 60349 20700.00000 0 -16429748.250 -15043541.742 -12409974.713 10 0 60349 21600.00000 0 -17328511.874 -16078595.274 -9574564.395 10 0 60349 22500.00000 0 -18077531.661 -16761641.133 -6553068.619 10 0 60349 23400.00000 0 -18620217.557 -17105882.752 -3404268.920 10 0 60349 24300.00000 0 -18905658.777 -17136733.911 -189364.105 10 0 60349 25200.00000 0 -18890905.666 -16890525.761 3029222.858 10 0 60349 26100.00000 0 -18542929.616 -16412770.489 6189057.397 10 0 60349 27000.00000 0 -17840178.940 -15756056.642 9228901.550 10 0 60349 27900.00000 0 -16773665.887 -14977666.063 12089894.493 10 0 60349 28800.00000 0 -15347539.784 -14137013.630 14716682.875 10 0 60349 29700.00000 0 -13579122.838 -13293017.718 17058479.858 10 0 60349 30600.00000 0 -11498407.384 -12501511.632 19070033.521 10 0 60349 31500.00000 0 -9147035.604 -11812803.969 20712487.200 10 0 60349 32400.00000 0 -6576803.775 -11269489.193 21954116.650 10 0 60349 33300.00000 0 -3847752.324 -10904599.012 22770931.292 10 0 60349 34200.00000 0 -1025919.718 -10740170.814 23147129.201 10 0 60349 35100.00000 0 1819148.448 -10786292.219 23075398.144 10 0 60349 36000.00000 0 4617033.953 -11040661.193 22557057.410 10 0 60349 36900.00000 0 7299117.026 -11488680.150 21602037.821 10 0 60349 37800.00000 0 9801175.444 -12104080.599 20228699.899 10 0 60349 38700.00000 0 12065805.814 -12850053.214 18463492.765 10 0 60349 39600.00000 0 14044568.006 -13680837.330 16340459.033 10 0 60349 40500.00000 0 15699764.719 -14543704.768 13900593.674 10 0 60349 41400.00000 0 17005782.593 -15381256.224 11191067.475 10 0 60349 42300.00000 0 17949938.944 -16133934.993 8264328.468 10 0 60349 43200.00000 0 18532798.353 -16742653.105 5177097.254 10 0 60349 44100.00000 0 18767945.180 -17151419.490 1989274.565 10 0 60349 45000.00000 0 18681220.750 -17309858.980 -1237218.376 10 0 60349 45900.00000 0 18309456.546 -17175514.779 -4439644.336 10 0 60349 46800.00000 0 17698756.257 -16715835.568 -7555675.693 10 0 60349 47700.00000 0 16902398.896 -15909761.238 -10524616.540 10 0 60349 48600.00000 0 15978451.723 -14748837.949 -13288596.417 10 0 60349 49500.00000 0 14987194.364 -13237813.050 -15793711.134 10 0 60349 50400.00000 0 13988463.925 -11394682.438 -17991087.088 10 0 60349 51300.00000 0 13039034.424 -9250186.356 -19837846.999 10 0 60349 52200.00000 0 12190142.541 -6846773.193 -21297957.196 10 0 60349 53100.00000 0 11485265.408 -4237073.619 -22342938.954 10 0 60349 54000.00000 0 10958245.302 -1481948.329 -22952429.497 10 0 60349 54900.00000 0 10631841.103 1351809.186 -23114581.380 10 0 60349 55800.00000 0 10516768.014 4194018.771 -22826292.443 10 0 60349 56700.00000 0 10611265.982 6973802.086 -22093262.047 10 0 60349 57600.00000 0 10901214.604 9622301.016 -20929872.875 10 0 60349 58500.00000 0 11360788.838 12075312.408 -19358901.112 10 0 60349 59400.00000 0 11953626.823 14275729.323 -17411061.345 10 0 60349 60300.00000 0 12634459.248 16175687.384 -15124395.714 10 0 60349 61200.00000 0 13351130.162 17738327.345 -12543520.099 10 0 60349 62100.00000 0 14046922.595 18939101.576 -9718742.856 10 0 60349 63000.00000 0 14663089.582 19766571.445 -6705074.158 10 0 60349 63900.00000 0 15141482.711 20222664.268 -3561146.164 10 0 60349 64800.00000 0 15427166.485 20322381.341 -348065.854 10 0 60349 65700.00000 0 15470907.724 20092971.676 2871776.478 10 0 60349 66600.00000 0 15231434.901 19572608.460 6035919.316 10 0 60349 67500.00000 0 14677372.364 18808625.891 9083038.843 10 0 60349 68400.00000 0 13788768.400 17855392.138 11954131.292 10 0 60349 69300.00000 0 12558153.402 16771908.945 14593646.201 10 0 60349 70200.00000 0 10991084.207 15619239.246 16950549.382 10 0 60349 71100.00000 0 9106152.099 14457870.694 18979296.186 10 0 60349 72000.00000 0 6934454.164 13345125.120 20640697.507 10 0 60349 72900.00000 0 4518549.705 12332721.421 21902663.322 10 0 60349 73800.00000 0 1910944.305 11464592.627 22740810.887 10 0 60349 74700.00000 0 -827836.677 10775047.073 23138927.134 10 0 60349 75600.00000 0 -3631506.915 10287349.283 23089277.427 10 0 60349 76500.00000 0 -6430518.609 10012778.882 22592755.316 10 0 60349 77400.00000 0 -9154701.185 9950206.271 21658870.552 10 0 60349 78300.00000 0 -11735932.087 10086202.741 20305575.175 10 0 60349 79200.00000 0 -14110730.930 10395680.827 18558930.167 10 0 60349 80100.00000 0 -16222671.035 10843038.940 16452617.790 10 0 60349 81000.00000 0 -18024509.353 11383763.460 14027307.428 10 0 60349 81900.00000 0 -19479946.843 11966422.327 11329885.455 10 0 60349 82800.00000 0 -20564945.999 12534967.538 8412562.355 10 0 60349 83700.00000 0 -21268550.140 13031250.539 5331872.891 10 0 60349 84600.00000 0 -21593169.456 13397644.968 2147587.540 10 0 60349 85500.00000 0 -21554320.814 13579665.947 -1078444.331 10 0 60350 0.00000 0 -21179831.364 13528474.563 -4283497.001 10 0 60350 900.00000 0 -20508538.327 13203160.275 -7405194.702 10 0 60350 1800.00000 0 -19588539.752 12572703.004 -10382732.745 10 0 60350 2700.00000 0 -18475069.158 11617529.646 -13158074.403 10 0 60350 3600.00000 0 -17228084.365 10330596.833 -15677094.618 10 0 60350 4500.00000 0 -15909672.774 8717951.805 -17890648.618 10 0 60350 5400.00000 0 -14581383.482 6798745.487 -19755543.025 10 0 60350 6300.00000 0 -13301599.895 4604695.250 -21235389.420 10 0 60350 7200.00000 0 -12123064.758 2179018.397 -22301322.787 10 0 60350 8100.00000 0 -11090662.886 -425119.912 -22932570.249 10 0 60350 9000.00000 0 -10239555.752 -3146579.941 -23116858.665 10 0 60350 9900.00000 0 -9593746.868 -5918559.474 -22850653.084 10 0 60350 10800.00000 0 -9165138.272 -8671148.049 -22139221.588 10 0 60350 11700.00000 0 -8953117.340 -11334016.452 -20996525.622 10 0 60350 12600.00000 0 -8944690.398 -13839128.903 -19444938.485 10 0 60350 13500.00000 0 -9115156.180 -16123364.654 -17514798.099 10 0 60350 14400.00000 0 -9429289.240 -18130939.637 -15243803.500 10 0 60350 15300.00000 0 -9842981.687 -19815527.456 -12676267.642 10 0 60350 16200.00000 0 -10305272.275 -21141991.933 -9862241.941 10 0 60350 17100.00000 0 -10760675.569 -22087659.979 -6856530.478 10 0 60350 18000.00000 0 -11151711.397 -22643083.122 -3717613.998 10 0 60350 18900.00000 0 -11421526.633 -22812257.746 -506505.478 10 0 60350 19800.00000 0 -11516497.781 -22612296.939 2714439.774 10 0 60350 20700.00000 0 -11388704.056 -22072569.874 5882735.773 10 0 60350 21600.00000 0 -10998166.541 -21233346.932 8936975.474 10 0 60350 22500.00000 0 -10314759.257 -20144009.181 11818014.935 10 0 60350 23400.00000 0 -9319712.056 -18860898.680 14470109.431 10 0 60350 24300.00000 0 -8006642.651 -17444900.581 16841980.292 10 0 60350 25200.00000 0 -6382074.800 -15958858.539 18887792.917 10 0 60350 26100.00000 0 -4465421.071 -14464931.307 20568028.372 10 0 60350 27000.00000 0 -2288430.684 -13022000.200 21850233.210 10 0 60350 27900.00000 0 105875.270 -11683234.499 22709634.547 10 0 60350 28800.00000 0 2664738.024 -10493914.999 23129609.820 10 0 60350 29700.00000 0 5327602.575 -9489604.994 23102003.238 10 0 60350 30600.00000 0 8028387.752 -8694743.652 22627283.454 10 0 60350 31500.00000 0 10697992.894 -8121719.422 21714539.568 10 0 60350 32400.00000 0 13266939.425 -7770461.517 20381315.172 10 0 60350 33300.00000 0 15668039.890 -7628566.407 18653282.739 10 0 60350 34200.00000 0 17838985.437 -7671954.341 16563763.403 10 0 60350 35100.00000 0 19724745.627 -7866029.140 14153099.774 10 0 60350 36000.00000 0 21279681.502 -8167293.555 11467892.192 10 0 60350 36900.00000 0 22469284.077 -8525353.350 8560111.528 10 0 60350 37800.00000 0 23271465.331 -8885226.666 5486104.205 10 0 60350 38700.00000 0 23677346.938 -9189861.891 2305507.552 10 0 60350 39600.00000 0 23691512.566 -9382757.879 -919904.137 10 0 60350 40500.00000 0 23331711.987 -9410575.332 -4127420.650 10 0 60350 41400.00000 0 22628028.234 -9225627.887 -7254620.428 10 0 60350 42300.00000 0 21621541.942 -8788145.924 -10240594.061 10 0 60350 43200.00000 0 20362548.558 -8068215.292 -13027141.879 10 0 60350 44100.00000 0 18908403.300 -7047306.647 -15559921.047 10 0 60350 45000.00000 0 17321085.006 -5719328.326 -17789518.428 10 0 60350 45900.00000 0 15664582.091 -4091155.943 -19672427.016 10 0 60350 46800.00000 0 14002211.600 -2182614.203 -21171905.779 10 0 60350 47700.00000 0 12393985.235 -25909.903 -22258705.182 10 0 60350 48600.00000 0 10894134.098 2335461.443 -22911643.648 10 0 60350 49500.00000 0 9548897.031 4848290.415 -23118023.365 10 0 60350 50400.00000 0 8394665.904 7451644.438 -22873877.230 10 0 60350 51300.00000 0 7456565.815 10079191.255 -22184042.317 10 0 60350 52200.00000 0 6747529.355 12661757.896 -21062058.747 10 0 60350 53100.00000 0 6267902.920 15130017.866 -19529896.491 10 0 60350 54000.00000 0 6005600.205 17417194.025 -17617516.028 10 0 60350 54900.00000 0 5936794.701 19461664.106 -15362272.175 10 0 60350 55800.00000 0 6027120.067 21209360.015 -12808173.509 10 0 60350 56700.00000 0 6233325.745 22615861.029 -10005012.713 10 0 60350 57600.00000 0 6505315.928 23648094.108 -7007385.641 10 0 60350 58500.00000 0 6788484.033 24285571.292 -3873619.177 10 0 60350 59400.00000 0 7026242.493 24521113.891 -664629.567 10 0 60350 60300.00000 0 7162639.839 24361034.907 2557265.809 10 0 60350 61200.00000 0 7144953.770 23824773.980 5729559.583 10 0 60350 62100.00000 0 6926150.329 22944002.100 8790764.626 10 0 60350 63000.00000 0 6467105.477 21761235.380 11681599.952 10 0 60350 63900.00000 0 5738495.683 20328017.426 14346129.627 10 0 60350 64800.00000 0 4722278.401 18702747.390 16732833.419 10 0 60350 65700.00000 0 3412700.642 16948245.032 18795589.538 10 0 60350 66600.00000 0 1816793.598 15129154.412 20494551.770 10 0 60350 67500.00000 0 -45667.434 13309293.964 21796905.547 10 0 60350 68400.00000 0 -2142736.634 11549062.301 22677489.862 10 0 60350 69300.00000 0 -4431381.729 9903006.437 23119274.316 10 0 60350 70200.00000 0 -6859034.860 8417652.061 23113683.218 10 0 60350 71100.00000 0 -9365547.573 7129684.607 22660761.108 10 0 60350 72000.00000 0 -11885470.813 6064555.467 21769176.697 10 0 60350 72900.00000 0 -14350567.517 5235570.358 20456064.815 10 0 60350 73800.00000 0 -16692455.672 4643497.203 18746708.553 10 0 60350 74700.00000 0 -18845273.959 4276709.759 16674066.473 10 0 60350 75600.00000 0 -20748260.690 4111861.243 14278152.456 10 0 60350 76500.00000 0 -22348139.704 4115060.327 11605278.414 10 0 60350 77400.00000 0 -23601214.075 4243500.939 8707172.872 10 0 60350 78300.00000 0 -24475080.019 4447478.127 5639990.934 10 0 60350 79200.00000 0 -24949888.533 4672705.658 2463233.652 10 0 60350 80100.00000 0 -25019100.701 4862837.844 -761402.949 10 0 60350 81000.00000 0 -24689703.601 4962088.810 -3971227.099 10 0 60350 81900.00000 0 -23981876.249 4917837.692 -7103775.218 10 0 60350 82800.00000 0 -22928118.321 4683108.221 -10098036.008 10 0 60350 83700.00000 0 -21571877.302 4218815.967 -12895649.880 10 0 60350 84600.00000 0 -19965731.217 3495686.013 -15442059.067 10 0 60350 85500.00000 0 -18169203.295 2495757.645 -17687584.674 99